Daviess Cnty AP, Washington,, IN

4:15 AM EST on December 07, 2019 (GMT -0500)
Daviess County

Weather History for KDCY - July, 2019

Change the Weather History Date:

Friday, July 19, 2019

  Actual Average (KLWV) Record (KLWV)
Temperature  
Mean Temperature 84 °F -  
Max Temperature 91 °F 85 °F 99 °F (2012)
Min Temperature 76 °F 65 °F 57 °F (2014)
Cooling Degree Days 18    
Growing Degree Days 34 (Base 50)    
Moisture  
Dew Point 75 °F    
Average Humidity 68    
Maximum Humidity 99    
Minimum Humidity 55    
Precipitation  
Precipitation 0.00 in - - ()
Sea Level Pressure  
Sea Level Pressure 29.95 in    
Wind  
Wind Speed 8 mph (SSW)    
Max Wind Speed 15 mph    
Max Gust Speed 18 mph    
Visibility 10 miles    
Events      
Averages and records for this station are not official NWS values.
T = Trace of Precipitation, MM = Missing Value Source: NWS Daily Summary

Daily Weather History Graph

Daily Weather History Graph

Search for Another Location

Airport or City:

Astronomy

Jul. 19, 2019 Rise Set
Actual Time 6:38 AM EDT 9:10 PM EDT
Civil Twilight 6:08 AM EDT 9:40 PM EDT
Nautical Twilight 5:30 AM EDT 10:18 PM EDT
Astronomical Twilight 4:47 AM EDT 11:01 PM EDT
Moon 11:09 PM EDT (7/19) 9:04 AM EDT (7/19)
Length of Visible Light 15h 32m
Length of Day
14h 31m
Waning Gibbous, 93% of the Moon is Illuminated
Jul 19
Waning Gibbous
Jul 24
Last Quarter
Jul 31
New
Aug 7
First Quarter
Aug 15
Full

Hourly Weather History & Observations

Time (EDT) Temp. Heat Index Dew Point Humidity Pressure Visibility Wind Dir Wind Speed Gust Speed Precip Events Conditions
12:15 AM - - - N/A% 29.94 in 10.0 mi SSW 5.8 mph - N/A   Clear
12:35 AM - - - N/A% 29.94 in 10.0 mi SSW 6.9 mph - N/A   Clear
12:55 AM - - - N/A% 29.94 in 10.0 mi SSW 8.1 mph - N/A   Clear
1:15 AM - - - N/A% 29.94 in 10.0 mi SSW 9.2 mph - N/A   Clear
1:35 AM - - - N/A% 29.94 in 10.0 mi SSW 9.2 mph - N/A   Clear
1:55 AM - - - N/A% 29.94 in 10.0 mi SSW 8.1 mph - N/A   Clear
2:15 AM - - - N/A% 29.94 in 10.0 mi SW 8.1 mph - N/A   Clear
2:35 AM - - - N/A% 29.94 in 10.0 mi SSW 6.9 mph - N/A   Clear
2:55 AM - - - N/A% 29.93 in 10.0 mi SSW 8.1 mph - N/A   Clear
3:15 AM - - - N/A% 29.94 in 10.0 mi SW 9.2 mph - N/A   Clear
3:35 AM - - - N/A% 29.94 in 10.0 mi SSW 9.2 mph - N/A   Clear
3:55 AM - - - N/A% 29.93 in 10.0 mi SSW 9.2 mph - N/A   Clear
4:15 AM - - - N/A% 29.93 in 10.0 mi SSW 9.2 mph - N/A   Clear
4:35 AM - - - N/A% 29.93 in 10.0 mi SSW 9.2 mph - N/A   Clear
4:55 AM - - - N/A% 29.93 in 10.0 mi SW 10.4 mph - N/A   Clear
5:15 AM - - - N/A% 29.93 in 10.0 mi SW 6.9 mph - N/A   Clear
5:35 AM - - - N/A% 29.94 in 10.0 mi SW 5.8 mph - N/A   Clear
5:55 AM - - - N/A% 29.94 in 7.0 mi SW 4.6 mph - N/A   Clear
6:15 AM - - - N/A% 29.94 in 10.0 mi SSW 5.8 mph - N/A   Clear
6:35 AM - - - N/A% 29.94 in 7.0 mi SSW 3.5 mph - N/A   Clear
6:55 AM - - - N/A% 29.95 in 7.0 mi SSW 4.6 mph - N/A   Clear
7:35 AM - - - N/A% 29.97 in 7.0 mi SSW 4.6 mph - N/A   Scattered Clouds
7:55 AM - - - N/A% 29.97 in 7.0 mi SSW 5.8 mph - N/A   Scattered Clouds
8:15 AM - - - N/A% 29.97 in 10.0 mi SW 4.6 mph - N/A   Scattered Clouds
8:35 AM - - - N/A% 29.98 in 10.0 mi SW 4.6 mph - N/A   Scattered Clouds
8:55 AM - - - N/A% 29.99 in 10.0 mi SW 6.9 mph - N/A   Mostly Cloudy
9:15 AM - - - N/A% 30.00 in 10.0 mi WSW 6.9 mph - N/A   Mostly Cloudy
9:35 AM - - - N/A% 30.00 in 10.0 mi SW 8.1 mph - N/A   Mostly Cloudy
9:55 AM - - - N/A% 30.00 in 10.0 mi SW 6.9 mph - N/A   Scattered Clouds
10:15 AM 84.0 °F 96.0 °F 79.0 °F 85% 30.00 in 10.0 mi SW 5.8 mph - N/A   Scattered Clouds
10:35 AM - - - N/A% 30.00 in 10.0 mi SW 8.1 mph - N/A   Mostly Cloudy
10:55 AM - - - N/A% 29.99 in 10.0 mi SSW 6.9 mph - N/A   Scattered Clouds
11:15 AM - - - N/A% 29.99 in 10.0 mi SW 9.2 mph - N/A   Mostly Cloudy
11:35 AM 85.8 °F 95.9 °F 76.1 °F 73% 29.98 in 10.0 mi SSW 6.9 mph - N/A   Mostly Cloudy
11:55 AM - - - N/A% 29.98 in 10.0 mi SSW 8.1 mph - N/A   Mostly Cloudy
12:35 PM 88.2 °F 99.5 °F 76.3 °F 68% 29.98 in 10.0 mi SSW 8.1 mph - N/A   Mostly Cloudy
12:55 PM 88.2 °F 98.5 °F 75.6 °F 66% 29.98 in 10.0 mi SW 10.4 mph - N/A   Scattered Clouds
1:15 PM 88.9 °F 100.9 °F 76.6 °F 67% 29.98 in 10.0 mi SW 6.9 mph - N/A   Mostly Cloudy
1:35 PM 89.6 °F 99.3 °F 74.7 °F 61% 29.98 in 10.0 mi SSW 10.4 mph - N/A   Scattered Clouds
1:55 PM 90.3 °F 101.6 °F 75.7 °F 62% 29.97 in 10.0 mi SW 10.4 mph - N/A   Scattered Clouds
2:15 PM 90.7 °F 100.1 °F 74.3 °F 58% 29.97 in 10.0 mi SW 9.2 mph - N/A   Scattered Clouds
2:35 PM 91.2 °F 102.0 °F 75.2 °F 59% 29.97 in 10.0 mi SW 8.1 mph 16.1 mph N/A   Mostly Cloudy
2:55 PM 90.7 °F 100.7 °F 74.7 °F 59% 29.97 in 10.0 mi SW 11.5 mph - N/A   Mostly Cloudy
3:15 PM 91.2 °F 100.8 °F 73.9 °F 57% 29.97 in 10.0 mi SW 11.5 mph - N/A   Scattered Clouds
3:35 PM 90.7 °F 100.7 °F 74.7 °F 59% 29.97 in 10.0 mi SW 9.2 mph - N/A   Scattered Clouds
3:55 PM 91.8 °F 102.1 °F 74.7 °F 57% 29.97 in 10.0 mi SW 9.2 mph - N/A   Scattered Clouds
4:15 PM 91.8 °F 102.8 °F 74.8 °F 58% 29.96 in 10.0 mi SW 9.2 mph - N/A   Scattered Clouds
4:35 PM 91.4 °F 100.7 °F 73.8 °F 56% 29.95 in 10.0 mi SW 10.4 mph 18.4 mph N/A   Clear
4:55 PM 91.6 °F 101.1 °F 73.8 °F 56% 29.95 in 10.0 mi SW 12.7 mph 18.4 mph N/A   Clear
5:15 PM 91.6 °F 101.7 °F 74.3 °F 57% 29.94 in 10.0 mi SW 6.9 mph 18.4 mph N/A   Scattered Clouds
5:35 PM 91.6 °F 100.5 °F 73.6 °F 55% 29.94 in 10.0 mi SW 11.5 mph 18.4 mph N/A   Scattered Clouds
5:55 PM 91.4 °F 100.1 °F 73.4 °F 55% 29.94 in 10.0 mi SW 13.8 mph 18.4 mph N/A   Scattered Clouds
6:15 PM 90.7 °F 101.3 °F 75.0 °F 60% 29.94 in 10.0 mi SSW 15.0 mph - N/A   Mostly Cloudy
6:35 PM 90.1 °F 98.9 °F 73.6 °F 58% 29.94 in 10.0 mi SW 10.4 mph 18.4 mph N/A   Scattered Clouds
6:55 PM 90.5 °F 99.7 °F 73.8 °F 58% 29.94 in 10.0 mi SW 5.8 mph - N/A   Scattered Clouds
7:15 PM 89.4 °F 97.8 °F 73.2 °F 59% 29.93 in 10.0 mi SW 11.5 mph 16.1 mph N/A   Scattered Clouds
7:35 PM 88.7 °F 96.7 °F 73.2 °F 60% 29.94 in 10.0 mi SW 9.2 mph - N/A   Clear
7:55 PM 88.0 °F 96.5 °F 73.8 °F 63% 29.92 in 10.0 mi SSW 5.8 mph - N/A   Clear
8:15 PM 87.3 °F 95.3 °F 73.6 °F 64% 29.92 in 10.0 mi SSW 6.9 mph - N/A   Clear
8:35 PM 86.0 °F 93.4 °F 73.6 °F 66% 29.92 in 10.0 mi SW 5.8 mph - N/A   Clear
8:55 PM 84.4 °F 91.3 °F 73.8 °F 70% 29.92 in 10.0 mi SW 6.9 mph - N/A   Clear
9:15 PM 83.3 °F 89.9 °F 73.8 °F 73% 29.92 in 10.0 mi SSW 5.8 mph - N/A   Clear
9:35 PM 82.8 °F 89.0 °F 73.6 °F 74% 29.92 in 10.0 mi SSW 5.8 mph - N/A   Clear
9:55 PM 82.2 °F 88.0 °F 73.6 °F 75% 29.93 in 10.0 mi SSW 4.6 mph - N/A   Clear
10:15 PM 79.9 °F - 74.5 °F 83% 29.93 in 10.0 mi South 4.6 mph - N/A   Clear
10:35 PM 79.0 °F - 75.4 °F 89% 29.94 in 10.0 mi South 5.8 mph - N/A   Clear
10:55 PM 78.3 °F - 76.6 °F 95% 29.95 in 10.0 mi South 3.5 mph - N/A   Clear
11:15 PM 77.7 °F - 77.2 °F 98% 29.96 in 10.0 mi South 3.5 mph - N/A   Clear
11:35 PM 76.6 °F - 76.3 °F 99% 29.96 in 10.0 mi South 4.6 mph - N/A   Clear
11:55 PM 76.5 °F - 76.1 °F 99% 29.97 in 10.0 mi SSE 3.5 mph - N/A   Clear